Regional Weather Roundup
Issued by NWS Cleveland, OH

Home | Current Version | Previous Version | Text Only | Print | Product List | Glossary On
Versions: 1 2 3 4 5 6 7 8 9 10 11 12 13 14 15 16 17 18 19 20 21 22 23 24 25 26 27 28 29 30 31 32 33 34 35 36 37 38 39 40 41 42 43 44 45 46 47 48 49 50
000
ASUS41 KCLE 250212
RWRCLE
OHIO REGIONAL WEATHER ROUNDUP
NATIONAL WEATHER SERVICE WILMINGTON, OH
1000 PM EDT SAT JUN 24 2017

NOTE: "FAIR" INDICATES FEW OR NO CLOUDS BELOW 12,000 FEET WITH NO
SIGNIFICANT WEATHER AND/OR OBSTRUCTIONS TO VISIBILITY.

OHZ001>008-015>018-024>027-034-035-043-044-250300-
   NORTHWEST OHIO

CITY           SKY/WX    TMP DP  RH WIND       PRES   REMARKS
DEFIANCE       FAIR      65  49  56 W3        30.02R
FINDLAY        MOCLDY    67  53  61 W5        30.01R
TOLEDO EXPRESS FAIR      66  50  56 W8        30.00R
TOLEDO EXEC    FAIR      68  50  52 NW10      30.00R
LIMA           FAIR      66  54  65 W12       30.03R
$$

OHZ009>014-019>023-028>033-038-089-250300-
   NORTHEAST OHIO

CITY           SKY/WX    TMP DP  RH WIND       PRES   REMARKS
CLE-HOPKINS    FAIR      72  55  55 W9        29.99R
CLE-LAKEFRONT  FAIR      71  59  65 W14       29.95R
CUY CO. ARPT   PTCLDY    72  57  60 W14       29.97R
LORAIN-ELYRIA  FAIR      69  51  52 NW9       29.98R
ASHTABULA      FAIR      67  56  67 SW6       29.96R
AKRON-CANTON   FAIR      70  53  54 W6        29.99R
WOOSTER        MOCLDY    68  56  65 W6        30.00R
MANSFIELD      FAIR      66  56  70 SW5       30.01R
YOUNGSTOWN     LGT RAIN  62  57  83 CALM      29.99R
$$

OHZ042-051>053-060>062-070>072-077>081-250300-
  SOUTHWEST OHIO

CITY           SKY/WX    TMP DP  RH WIND       PRES   REMARKS
CINC-COVINGTON MOCLDY    68  58  70 W6        30.07R
CINC-LUNKEN    FAIR      73  55  53 NW8       30.06R
HAMILTON       FAIR      71  56  58 W6        30.07R
DAYTON         FAIR      67  52  58 W9        30.07R
WRIGHT-PAT AFB NOT AVBL
DAYTON GENERAL FAIR      68  53  58 W6        30.06R
WILMINGTON     FAIR      70  57  63 W7        30.06R
$$

OHZ036-037-039>041-045>050-054>059-063>069-073>076-082>088-250300-
  CENTRAL AND SOUTHEAST OHIO

CITY           SKY/WX    TMP DP  RH WIND       PRES   REMARKS
COLUMBUS       FAIR      71  55  56 W12       30.02R
OSU AIRPORT    FAIR      67  56  67 W7        30.02R
BOLTON FIELD   NOT AVBL
RICKENBACK AFB MOCLDY    71  56  59 W9        30.02R
NEWARK         FAIR      68  55  63 W5        30.01R
MARION         FAIR      68  54  60 W6        30.02R
LANCASTER      FAIR      68  59  73 W6        30.03R
ZANESVILLE     FAIR      70  57  63 SW5       30.01R
NEW PHILLY     FAIR      69  59  70 CALM      30.00R
$$



USA.gov is the U.S. government's official web portal to all federal, state and local government web resources and services.